Time,TemperatureF,DewpointF,PressureIn,WindDirection,WindDirectionDegrees,WindSpeedMPH,WindSpeedGustMPH,Humidity,HourlyPrecipIn,Conditions,Clouds,dailyrainin,SolarRadiationWatts/m^2,SoftwareType,DateUTC
2013-05-17 00:01:00,63.8,35.6,29.79,North,349,7.0,-999.0,35,0.00,,,0.00,0,Wunderground v.1.15,2013-05-17 04:01:00,
2013-05-17 00:06:00,63.6,35.4,29.79,North,355,8.0,-999.0,35,0.00,,,0.00,0,Wunderground v.1.15,2013-05-17 04:06:00,
2013-05-17 00:11:00,63.6,36.1,29.79,NNW,333,10.0,-999.0,36,0.00,,,0.00,0,Wunderground v.1.15,2013-05-17 04:11:00,
2013-05-17 00:16:00,63.5,36.0,29.79,North,351,8.0,-999.0,36,0.00,,,0.00,0,Wunderground v.1.15,2013-05-17 04:16:00,
2013-05-17 00:21:00,63.4,36.0,29.79,NNE,21,9.0,-999.0,36,0.00,,,0.00,0,Wunderground v.1.15,2013-05-17 04:21:00,
2013-05-17 00:26:00,63.3,36.6,29.79,NW,315,13.0,-999.0,37,0.00,,,0.00,0,Wunderground v.1.15,2013-05-17 04:26:00,
2013-05-17 00:31:00,63.1,37.1,29.79,North,360,12.0,-999.0,38,0.00,,,0.00,0,Wunderground v.1.15,2013-05-17 04:31:00,
2013-05-17 00:36:00,63.1,37.1,29.79,North,11,6.0,-999.0,38,0.00,,,0.00,0,Wunderground v.1.15,2013-05-17 04:36:00,
2013-05-17 00:41:00,62.9,36.9,29.80,North,355,9.0,-999.0,38,0.00,,,0.00,0,Wunderground v.1.15,2013-05-17 04:41:00,
2013-05-17 00:46:00,62.7,37.4,29.80,North,10,10.0,-999.0,39,0.00,,,0.00,0,Wunderground v.1.15,2013-05-17 04:46:00,
2013-05-17 00:51:00,62.6,37.9,29.81,NE,42,2.0,-999.0,40,0.00,,,0.00,0,Wunderground v.1.15,2013-05-17 04:51:00,
2013-05-17 00:56:00,62.3,38.3,29.81,North,360,9.0,-999.0,41,0.00,,,0.00,0,Wunderground v.1.15,2013-05-17 04:56:00,
2013-05-17 01:01:00,62.2,38.2,29.81,ESE,104,5.0,-999.0,41,0.00,,,0.00,0,Wunderground v.1.15,2013-05-17 05:01:00,
2013-05-17 01:06:00,62.1,38.7,29.80,North,11,12.0,-999.0,42,0.00,,,0.00,0,Wunderground v.1.15,2013-05-17 05:06:00,
2013-05-17 01:11:00,61.9,38.5,29.81,North,360,16.0,-999.0,42,0.00,,,0.00,0,Wunderground v.1.15,2013-05-17 05:11:00,
2013-05-17 01:16:00,61.7,39.0,29.81,NNE,18,2.0,-999.0,43,0.00,,,0.00,0,Wunderground v.1.15,2013-05-17 05:16:00,
2013-05-17 01:21:00,61.4,39.3,29.81,NW,308,2.0,-999.0,44,0.00,,,0.00,0,Wunderground v.1.15,2013-05-17 05:21:00,
2013-05-17 01:26:00,61.1,39.6,29.81,NNW,338,6.0,-999.0,45,0.00,,,0.00,0,Wunderground v.1.15,2013-05-17 05:26:00,
2013-05-17 01:31:00,60.7,39.2,29.82,North,355,6.0,-999.0,45,0.00,,,0.00,0,Wunderground v.1.15,2013-05-17 05:31:00,
2013-05-17 01:36:00,60.6,39.7,29.82,NNW,330,7.0,-999.0,46,0.00,,,0.00,0,Wunderground v.1.15,2013-05-17 05:36:00,
2013-05-17 01:41:00,60.5,39.6,29.82,WNW,291,4.0,-999.0,46,0.00,,,0.00,0,Wunderground v.1.15,2013-05-17 05:41:00,
2013-05-17 01:46:00,60.3,40.0,29.82,NNE,26,5.0,-999.0,47,0.00,,,0.00,0,Wunderground v.1.15,2013-05-17 05:46:00,
2013-05-17 01:51:00,60.1,40.3,29.82,NNW,344,9.0,-999.0,48,0.00,,,0.00,0,Wunderground v.1.15,2013-05-17 05:51:00,
2013-05-17 01:56:00,59.9,40.7,29.82,NNE,24,5.0,-999.0,49,0.00,,,0.00,0,Wunderground v.1.15,2013-05-17 05:56:00,
2013-05-17 02:01:00,59.6,40.9,29.82,NW,325,9.0,-999.0,50,0.00,,,0.00,0,Wunderground v.1.15,2013-05-17 06:01:00,
2013-05-17 02:06:00,59.4,40.7,29.82,NW,319,6.0,-999.0,50,0.00,,,0.00,0,Wunderground v.1.15,2013-05-17 06:06:00,
2013-05-17 02:11:00,59.1,41.0,29.83,North,5,5.0,-999.0,51,0.00,,,0.00,0,Wunderground v.1.15,2013-05-17 06:11:00,
2013-05-17 02:16:00,58.8,41.2,29.83,NNE,22,8.0,-999.0,52,0.00,,,0.00,0,Wunderground v.1.15,2013-05-17 06:16:00,
2013-05-17 02:21:00,58.6,41.0,29.84,NNW,341,1.0,-999.0,52,0.00,,,0.00,0,Wunderground v.1.15,2013-05-17 06:21:00,
2013-05-17 02:26:00,58.3,40.7,29.84,NNE,21,4.0,-999.0,52,0.00,,,0.00,0,Wunderground v.1.15,2013-05-17 06:26:00,
2013-05-17 02:31:00,57.9,40.9,29.85,NNE,17,0.0,-999.0,53,0.00,,,0.00,0,Wunderground v.1.15,2013-05-17 06:31:00,
2013-05-17 02:36:00,57.7,41.2,29.84,NNE,17,0.0,-999.0,54,0.00,,,0.00,0,Wunderground v.1.15,2013-05-17 06:36:00,
2013-05-17 02:41:00,57.3,41.3,29.84,NNE,17,0.0,-999.0,55,0.00,,,0.00,0,Wunderground v.1.15,2013-05-17 06:41:00,
2013-05-17 02:46:00,56.9,40.9,29.85,NNE,17,3.0,-999.0,55,0.00,,,0.00,0,Wunderground v.1.15,2013-05-17 06:46:00,
2013-05-17 02:51:00,56.6,41.1,29.85,NNE,17,1.0,-999.0,56,0.00,,,0.00,0,Wunderground v.1.15,2013-05-17 06:51:00,
2013-05-17 02:56:00,56.2,41.2,29.85,North,360,3.0,-999.0,57,0.00,,,0.00,0,Wunderground v.1.15,2013-05-17 06:56:00,
2013-05-17 03:01:00,55.9,40.9,29.86,North,360,3.0,-999.0,57,0.00,,,0.00,0,Wunderground v.1.15,2013-05-17 07:01:00,
2013-05-17 03:06:00,55.7,41.1,29.86,North,360,0.0,-999.0,58,0.00,,,0.00,0,Wunderground v.1.15,2013-05-17 07:06:00,
2013-05-17 03:11:00,55.5,41.0,29.86,North,360,2.0,-999.0,58,0.00,,,0.00,0,Wunderground v.1.15,2013-05-17 07:11:00,
2013-05-17 03:16:00,55.3,41.2,29.86,North,360,0.0,-999.0,59,0.00,,,0.00,0,Wunderground v.1.15,2013-05-17 07:16:00,
2013-05-17 03:21:00,55.1,41.0,29.86,North,360,0.0,-999.0,59,0.00,,,0.00,0,Wunderground v.1.15,2013-05-17 07:21:00,
2013-05-17 03:26:00,54.9,40.8,29.86,North,360,0.0,-999.0,59,0.00,,,0.00,0,Wunderground v.1.15,2013-05-17 07:26:00,
2013-05-17 03:31:00,54.6,41.0,29.86,North,360,2.0,-999.0,60,0.00,,,0.00,0,Wunderground v.1.15,2013-05-17 07:31:00,
2013-05-17 03:36:00,54.3,40.7,29.87,North,360,0.0,-999.0,60,0.00,,,0.00,0,Wunderground v.1.15,2013-05-17 07:36:00,
2013-05-17 03:41:00,54.1,40.5,29.87,North,360,0.0,-999.0,60,0.00,,,0.00,0,Wunderground v.1.15,2013-05-17 07:41:00,
2013-05-17 03:46:00,53.9,40.8,29.87,North,360,0.0,-999.0,61,0.00,,,0.00,0,Wunderground v.1.15,2013-05-17 07:46:00,
2013-05-17 03:51:00,53.7,40.6,29.87,North,360,1.0,-999.0,61,0.00,,,0.00,0,Wunderground v.1.15,2013-05-17 07:51:00,
2013-05-17 03:56:00,53.6,40.5,29.87,North,360,3.0,-999.0,61,0.00,,,0.00,0,Wunderground v.1.15,2013-05-17 07:56:00,
2013-05-17 04:01:00,53.5,40.4,29.88,North,360,0.0,-999.0,61,0.00,,,0.00,0,Wunderground v.1.15,2013-05-17 08:01:00,
2013-05-17 04:06:00,53.4,40.3,29.88,North,360,1.0,-999.0,61,0.00,,,0.00,0,Wunderground v.1.15,2013-05-17 08:06:00,
2013-05-17 04:11:00,53.3,40.2,29.88,North,360,3.0,-999.0,61,0.00,,,0.00,0,Wunderground v.1.15,2013-05-17 08:11:00,
2013-05-17 04:16:00,53.2,40.5,29.88,North,360,3.0,-999.0,62,0.00,,,0.00,0,Wunderground v.1.15,2013-05-17 08:16:00,
2013-05-17 04:21:00,53.1,40.4,29.89,North,355,2.0,-999.0,62,0.00,,,0.00,0,Wunderground v.1.15,2013-05-17 08:21:00,
2013-05-17 04:26:00,53.0,40.3,29.88,North,5,6.0,-999.0,62,0.00,,,0.00,0,Wunderground v.1.15,2013-05-17 08:26:00,
2013-05-17 04:31:00,53.0,40.3,29.89,NE,46,6.0,-999.0,62,0.00,,,0.00,0,Wunderground v.1.15,2013-05-17 08:31:00,
2013-05-17 04:36:00,53.1,40.4,29.89,North,350,2.0,-999.0,62,0.00,,,0.00,0,Wunderground v.1.15,2013-05-17 08:36:00,
2013-05-17 04:41:00,53.0,40.7,29.89,NNW,341,9.0,-999.0,63,0.00,,,0.00,0,Wunderground v.1.15,2013-05-17 08:41:00,
2013-05-17 04:46:00,52.9,40.6,29.90,NE,47,0.0,-999.0,63,0.00,,,0.00,0,Wunderground v.1.15,2013-05-17 08:46:00,
2013-05-17 04:51:00,52.8,40.5,29.90,NNE,27,5.0,-999.0,63,0.00,,,0.00,0,Wunderground v.1.15,2013-05-17 08:51:00,
2013-05-17 04:56:00,52.7,40.0,29.91,North,9,6.0,-999.0,62,0.00,,,0.00,0,Wunderground v.1.15,2013-05-17 08:56:00,
2013-05-17 05:01:00,52.6,39.5,29.90,North,5,9.0,-999.0,61,0.00,,,0.00,0,Wunderground v.1.15,2013-05-17 09:01:00,
2013-05-17 05:06:00,52.8,39.7,29.91,NNE,22,3.0,-999.0,61,0.00,,,0.00,0,Wunderground v.1.15,2013-05-17 09:06:00,
2013-05-17 05:11:00,52.8,39.7,29.90,NE,55,3.0,-999.0,61,0.00,,,0.00,0,Wunderground v.1.15,2013-05-17 09:11:00,
2013-05-17 05:16:00,52.8,39.7,29.90,NW,323,14.0,-999.0,61,0.00,,,0.00,0,Wunderground v.1.15,2013-05-17 09:16:00,
2013-05-17 05:21:00,52.8,39.7,29.91,North,360,7.0,-999.0,61,0.00,,,0.00,0,Wunderground v.1.15,2013-05-17 09:21:00,
2013-05-17 05:26:00,52.8,39.7,29.91,NNW,342,8.0,-999.0,61,0.00,,,0.00,0,Wunderground v.1.15,2013-05-17 09:26:00,
2013-05-17 05:31:00,52.7,39.6,29.91,North,5,4.0,-999.0,61,0.00,,,0.00,5,Wunderground v.1.15,2013-05-17 09:31:00,
2013-05-17 05:36:00,52.4,39.3,29.92,North,11,0.0,-999.0,61,0.00,,,0.00,5,Wunderground v.1.15,2013-05-17 09:36:00,
2013-05-17 05:41:00,52.3,39.7,29.92,North,355,6.0,-999.0,62,0.00,,,0.00,9,Wunderground v.1.15,2013-05-17 09:41:00,
2013-05-17 05:46:00,52.1,39.5,29.92,North,355,1.0,-999.0,62,0.00,,,0.00,12,Wunderground v.1.15,2013-05-17 09:46:00,
2013-05-17 05:51:00,52.0,39.4,29.92,NNE,17,0.0,-999.0,62,0.00,,,0.00,14,Wunderground v.1.15,2013-05-17 09:51:00,
2013-05-17 05:56:00,51.9,39.3,29.93,North,5,4.0,-999.0,62,0.00,,,0.00,19,Wunderground v.1.15,2013-05-17 09:56:00,
2013-05-17 06:01:00,51.9,39.3,29.94,NNW,336,7.0,-999.0,62,0.00,,,0.00,19,Wunderground v.1.15,2013-05-17 10:01:00,
2013-05-17 06:06:00,52.0,39.0,29.94,North,351,15.0,-999.0,61,0.00,,,0.00,21,Wunderground v.1.15,2013-05-17 10:06:00,
2013-05-17 06:11:00,52.2,38.7,29.94,North,351,8.0,-999.0,60,0.00,,,0.00,25,Wunderground v.1.15,2013-05-17 10:11:00,
2013-05-17 06:16:00,52.3,38.8,29.94,NE,38,4.0,-999.0,60,0.00,,,0.00,25,Wunderground v.1.15,2013-05-17 10:16:00,
2013-05-17 06:21:00,52.3,38.8,29.94,NNE,15,10.0,-999.0,60,0.00,,,0.00,23,Wunderground v.1.15,2013-05-17 10:21:00,
2013-05-17 06:26:00,52.3,38.8,29.95,North,355,13.0,-999.0,60,0.00,,,0.00,25,Wunderground v.1.15,2013-05-17 10:26:00,
2013-05-17 06:31:00,52.2,38.3,29.95,North,5,13.0,-999.0,59,0.00,,,0.00,26,Wunderground v.1.15,2013-05-17 10:31:00,
2013-05-17 06:37:00,52.2,38.7,29.95,NW,308,23.0,-999.0,60,0.00,,,0.00,30,Wunderground v.1.15,2013-05-17 10:37:00,
2013-05-17 06:42:00,52.1,38.6,29.95,NNW,344,15.0,-999.0,60,0.00,,,0.00,40,Wunderground v.1.15,2013-05-17 10:42:00,
2013-05-17 06:47:00,52.1,38.2,29.95,NNW,334,9.0,-999.0,59,0.00,,,0.00,49,Wunderground v.1.15,2013-05-17 10:47:00,
2013-05-17 06:52:00,52.1,38.6,29.95,North,360,9.0,-999.0,60,0.00,,,0.00,142,Wunderground v.1.15,2013-05-17 10:52:00,
2013-05-17 06:57:00,52.2,38.3,29.95,North,355,10.0,-999.0,59,0.00,,,0.00,162,Wunderground v.1.15,2013-05-17 10:57:00,
2013-05-17 07:02:00,52.4,38.5,29.95,North,5,11.0,-999.0,59,0.00,,,0.00,183,Wunderground v.1.15,2013-05-17 11:02:00,
2013-05-17 07:07:00,52.5,38.1,29.94,NNW,333,13.0,-999.0,58,0.00,,,0.00,200,Wunderground v.1.15,2013-05-17 11:07:00,
2013-05-17 07:12:00,52.6,38.2,29.94,NNE,13,16.0,-999.0,58,0.00,,,0.00,204,Wunderground v.1.15,2013-05-17 11:12:00,
2013-05-17 07:17:00,52.6,38.2,29.95,NNE,30,6.0,-999.0,58,0.00,,,0.00,246,Wunderground v.1.15,2013-05-17 11:17:00,
2013-05-17 07:22:00,52.7,38.3,29.95,North,9,11.0,-999.0,58,0.00,,,0.00,260,Wunderground v.1.15,2013-05-17 11:22:00,
2013-05-17 07:27:00,52.7,37.9,29.95,North,5,7.0,-999.0,57,0.00,,,0.00,283,Wunderground v.1.15,2013-05-17 11:27:00,
2013-05-17 07:32:00,52.7,38.3,29.95,North,11,17.0,-999.0,58,0.00,,,0.00,241,Wunderground v.1.15,2013-05-17 11:32:00,
2013-05-17 07:37:00,52.7,38.3,29.95,NE,36,18.0,-999.0,58,0.00,,,0.00,325,Wunderground v.1.15,2013-05-17 11:37:00,
2013-05-17 07:42:00,52.7,38.3,29.95,WNW,285,21.0,-999.0,58,0.00,,,0.00,348,Wunderground v.1.15,2013-05-17 11:42:00,
2013-05-17 07:47:00,52.9,38.5,29.96,NNE,24,7.0,-999.0,58,0.00,,,0.00,334,Wunderground v.1.15,2013-05-17 11:47:00,
2013-05-17 07:52:00,53.0,38.2,29.95,North,360,12.0,-999.0,57,0.00,,,0.00,362,Wunderground v.1.15,2013-05-17 11:52:00,
2013-05-17 07:57:00,53.1,38.7,29.95,NNE,19,11.0,-999.0,58,0.00,,,0.00,378,Wunderground v.1.15,2013-05-17 11:57:00,
2013-05-17 08:02:00,53.2,38.8,29.96,North,5,18.0,-999.0,58,0.00,,,0.00,336,Wunderground v.1.15,2013-05-17 12:02:00,
2013-05-17 08:07:00,53.2,38.8,29.96,NW,319,19.0,-999.0,58,0.00,,,0.00,397,Wunderground v.1.15,2013-05-17 12:07:00,
2013-05-17 08:12:00,53.3,38.9,29.97,NNE,33,10.0,-999.0,58,0.00,,,0.00,304,Wunderground v.1.15,2013-05-17 12:12:00,
2013-05-17 08:17:00,53.5,39.1,29.98,NNE,26,8.0,-999.0,58,0.00,,,0.00,213,Wunderground v.1.15,2013-05-17 12:17:00,
2013-05-17 08:22:00,53.5,38.6,29.98,NE,38,10.0,-999.0,57,0.00,,,0.00,287,Wunderground v.1.15,2013-05-17 12:22:00,
2013-05-17 08:27:00,53.5,39.1,29.99,NNE,21,8.0,-999.0,58,0.00,,,0.00,221,Wunderground v.1.15,2013-05-17 12:27:00,
2013-05-17 08:32:00,53.6,38.7,29.99,North,5,6.0,-999.0,57,0.00,,,0.00,193,Wunderground v.1.15,2013-05-17 12:32:00,
2013-05-17 08:37:00,53.6,39.2,29.99,NNE,22,9.0,-999.0,58,0.00,,,0.00,204,Wunderground v.1.15,2013-05-17 12:37:00,
2013-05-17 08:42:00,53.6,38.7,29.99,NE,43,7.0,-999.0,57,0.00,,,0.00,199,Wunderground v.1.15,2013-05-17 12:42:00,
2013-05-17 08:47:00,53.6,38.7,30.00,NNW,343,8.0,-999.0,57,0.00,,,0.00,197,Wunderground v.1.15,2013-05-17 12:47:00,
2013-05-17 08:52:00,53.7,38.8,30.00,NNE,28,8.0,-999.0,57,0.00,,,0.00,202,Wunderground v.1.15,2013-05-17 12:52:00,
2013-05-17 08:57:00,53.9,39.0,30.00,NNW,333,8.0,-999.0,57,0.00,,,0.00,255,Wunderground v.1.15,2013-05-17 12:57:00,
2013-05-17 09:02:00,54.1,39.2,30.00,NNE,17,6.0,-999.0,57,0.00,,,0.00,404,Wunderground v.1.15,2013-05-17 13:02:00,
2013-05-17 09:07:00,54.6,39.7,30.00,NNE,32,8.0,-999.0,57,0.00,,,0.00,425,Wunderground v.1.15,2013-05-17 13:07:00,
2013-05-17 09:12:00,55.2,39.8,30.00,NE,54,8.0,-999.0,56,0.00,,,0.00,345,Wunderground v.1.15,2013-05-17 13:12:00,
2013-05-17 09:17:00,55.5,39.1,30.00,NW,323,13.0,-999.0,54,0.00,,,0.00,276,Wunderground v.1.15,2013-05-17 13:17:00,
2013-05-17 09:22:00,55.5,39.1,30.00,NNE,19,9.0,-999.0,54,0.00,,,0.00,346,Wunderground v.1.15,2013-05-17 13:22:00,
2013-05-17 09:27:00,55.6,39.2,30.01,NNE,30,8.0,-999.0,54,0.00,,,0.00,462,Wunderground v.1.15,2013-05-17 13:27:00,
2013-05-17 09:32:00,55.9,39.5,30.01,NE,42,6.0,-999.0,54,0.00,,,0.00,499,Wunderground v.1.15,2013-05-17 13:32:00,
2013-05-17 09:37:00,56.3,39.9,30.01,North,360,10.0,-999.0,54,0.00,,,0.00,452,Wunderground v.1.15,2013-05-17 13:37:00,
2013-05-17 09:42:00,56.7,39.3,30.00,NE,45,8.0,-999.0,52,0.00,,,0.00,445,Wunderground v.1.15,2013-05-17 13:42:00,
2013-05-17 09:47:00,56.9,39.9,30.01,NNE,24,9.0,-999.0,53,0.00,,,0.00,469,Wunderground v.1.15,2013-05-17 13:47:00,
2013-05-17 09:52:00,57.2,39.2,30.01,NE,42,7.0,-999.0,51,0.00,,,0.00,475,Wunderground v.1.15,2013-05-17 13:52:00,
2013-05-17 09:57:00,57.2,39.2,30.01,ENE,57,3.0,-999.0,51,0.00,,,0.00,503,Wunderground v.1.15,2013-05-17 13:57:00,
2013-05-17 10:02:00,57.5,40.0,30.01,North,9,3.0,-999.0,52,0.00,,,0.00,475,Wunderground v.1.15,2013-05-17 14:02:00,
2013-05-17 10:07:00,57.9,39.9,30.01,NNE,19,7.0,-999.0,51,0.00,,,0.00,501,Wunderground v.1.15,2013-05-17 14:07:00,
2013-05-17 10:12:00,58.2,40.1,30.01,ENE,68,4.0,-999.0,51,0.00,,,0.00,543,Wunderground v.1.15,2013-05-17 14:12:00,
2013-05-17 10:17:00,58.8,40.2,30.01,NNW,335,6.0,-999.0,50,0.00,,,0.00,596,Wunderground v.1.15,2013-05-17 14:17:00,
2013-05-17 10:22:00,59.2,39.5,30.01,NNE,17,5.0,-999.0,48,0.00,,,0.00,584,Wunderground v.1.15,2013-05-17 14:22:00,
2013-05-17 10:27:00,59.3,39.6,30.02,NE,51,5.0,-999.0,48,0.00,,,0.00,464,Wunderground v.1.15,2013-05-17 14:27:00,
2013-05-17 10:32:00,59.4,40.2,30.02,NNW,332,16.0,-999.0,49,0.00,,,0.00,647,Wunderground v.1.15,2013-05-17 14:32:00,
2013-05-17 10:37:00,59.8,39.5,30.02,NNE,12,12.0,-999.0,47,0.00,,,0.00,661,Wunderground v.1.15,2013-05-17 14:37:00,
2013-05-17 10:42:00,60.1,39.8,30.02,NE,36,4.0,-999.0,47,0.00,,,0.00,476,Wunderground v.1.15,2013-05-17 14:42:00,
2013-05-17 10:47:00,60.3,39.4,30.02,NNE,13,13.0,-999.0,46,0.00,,,0.00,666,Wunderground v.1.15,2013-05-17 14:47:00,
2013-05-17 10:52:00,60.2,38.8,30.02,NNE,26,9.0,-999.0,45,0.00,,,0.00,696,Wunderground v.1.15,2013-05-17 14:52:00,
2013-05-17 10:57:00,60.5,38.5,30.02,NNE,19,8.0,-999.0,44,0.00,,,0.00,814,Wunderground v.1.15,2013-05-17 14:57:00,
2013-05-17 11:02:00,60.9,38.8,30.02,ENE,59,7.0,-999.0,44,0.00,,,0.00,800,Wunderground v.1.15,2013-05-17 15:02:00,
2013-05-17 11:07:00,61.4,39.3,30.02,NE,52,12.0,-999.0,44,0.00,,,0.00,788,Wunderground v.1.15,2013-05-17 15:07:00,
2013-05-17 11:12:00,61.5,38.2,30.02,WNW,292,7.0,-999.0,42,0.00,,,0.00,802,Wunderground v.1.15,2013-05-17 15:12:00,
2013-05-17 11:17:00,61.8,39.1,30.02,NNE,13,4.0,-999.0,43,0.00,,,0.00,728,Wunderground v.1.15,2013-05-17 15:17:00,
2013-05-17 11:22:00,62.0,38.6,30.01,NNE,17,4.0,-999.0,42,0.00,,,0.00,761,Wunderground v.1.15,2013-05-17 15:22:00,
2013-05-17 11:27:00,62.4,38.4,30.02,NNE,21,11.0,-999.0,41,0.00,,,0.00,765,Wunderground v.1.15,2013-05-17 15:27:00,
2013-05-17 11:32:00,62.7,39.3,30.02,North,355,9.0,-999.0,42,0.00,,,0.00,846,Wunderground v.1.15,2013-05-17 15:32:00,
2013-05-17 11:37:00,63.1,39.0,30.01,NNE,22,7.0,-999.0,41,0.00,,,0.00,879,Wunderground v.1.15,2013-05-17 15:37:00,
2013-05-17 11:42:00,63.2,39.7,30.01,North,5,8.0,-999.0,42,0.00,,,0.00,888,Wunderground v.1.15,2013-05-17 15:42:00,
2013-05-17 11:47:00,63.9,39.1,30.01,ENE,61,5.0,-999.0,40,0.00,,,0.00,898,Wunderground v.1.15,2013-05-17 15:47:00,
2013-05-17 11:52:00,64.1,38.6,30.01,NNW,339,8.0,-999.0,39,0.00,,,0.00,902,Wunderground v.1.15,2013-05-17 15:52:00,
2013-05-17 11:57:00,64.3,40.1,30.01,North,5,8.0,-999.0,41,0.00,,,0.00,925,Wunderground v.1.15,2013-05-17 15:57:00,
2013-05-17 12:02:00,64.6,38.4,30.01,North,355,9.0,-999.0,38,0.00,,,0.00,944,Wunderground v.1.15,2013-05-17 16:02:00,
2013-05-17 12:07:00,64.6,39.1,30.01,NE,39,10.0,-999.0,39,0.00,,,0.00,902,Wunderground v.1.15,2013-05-17 16:07:00,
2013-05-17 12:12:00,64.4,39.5,30.01,West,281,4.0,-999.0,40,0.00,,,0.00,854,Wunderground v.1.15,2013-05-17 16:12:00,
2013-05-17 12:17:00,64.8,39.9,30.01,North,9,8.0,-999.0,40,0.00,,,0.00,921,Wunderground v.1.15,2013-05-17 16:17:00,
2013-05-17 12:22:00,65.2,40.3,30.01,North,355,12.0,-999.0,40,0.00,,,0.00,946,Wunderground v.1.15,2013-05-17 16:22:00,
2013-05-17 12:27:00,65.8,40.1,30.01,NNW,342,12.0,-999.0,39,0.00,,,0.00,907,Wunderground v.1.15,2013-05-17 16:27:00,
2013-05-17 12:32:00,65.7,38.7,30.01,North,360,13.0,-999.0,37,0.00,,,0.00,935,Wunderground v.1.15,2013-05-17 16:32:00,
2013-05-17 12:37:00,65.8,39.5,30.01,North,11,8.0,-999.0,38,0.00,,,0.00,937,Wunderground v.1.15,2013-05-17 16:37:00,
2013-05-17 12:42:00,65.9,38.2,30.01,North,349,13.0,-999.0,36,0.00,,,0.00,940,Wunderground v.1.15,2013-05-17 16:42:00,
2013-05-17 12:47:00,66.2,37.7,30.00,NE,36,5.0,-999.0,35,0.00,,,0.00,928,Wunderground v.1.15,2013-05-17 16:47:00,
2013-05-17 12:52:00,66.3,39.2,30.01,ENE,61,3.0,-999.0,37,0.00,,,0.00,944,Wunderground v.1.15,2013-05-17 16:52:00,
2013-05-17 12:57:00,66.6,38.8,30.00,NNW,332,0.0,-999.0,36,0.00,,,0.00,937,Wunderground v.1.15,2013-05-17 16:57:00,
2013-05-17 13:02:00,66.7,38.9,30.00,North,349,16.0,-999.0,36,0.00,,,0.00,939,Wunderground v.1.15,2013-05-17 17:02:00,
2013-05-17 13:07:00,66.8,39.0,30.00,North,360,10.0,-999.0,36,0.00,,,0.00,928,Wunderground v.1.15,2013-05-17 17:07:00,
2013-05-17 13:12:00,67.1,38.5,30.00,NNE,30,12.0,-999.0,35,0.00,,,0.00,928,Wunderground v.1.15,2013-05-17 17:12:00,
2013-05-17 13:17:00,66.6,38.1,30.00,NNE,32,5.0,-999.0,35,0.00,,,0.00,923,Wunderground v.1.15,2013-05-17 17:17:00,
2013-05-17 13:22:00,66.7,39.6,30.00,NW,315,19.0,-999.0,37,0.00,,,0.00,923,Wunderground v.1.15,2013-05-17 17:22:00,
2013-05-17 13:27:00,67.4,39.5,30.00,NNE,15,7.0,-999.0,36,0.00,,,0.00,921,Wunderground v.1.15,2013-05-17 17:27:00,
2013-05-17 13:32:00,67.6,39.7,30.00,NNE,24,10.0,-999.0,36,0.00,,,0.00,918,Wunderground v.1.15,2013-05-17 17:32:00,
2013-05-17 13:37:00,67.6,41.1,30.00,NNE,23,14.0,-999.0,38,0.00,,,0.00,914,Wunderground v.1.15,2013-05-17 17:37:00,
2013-05-17 13:42:00,67.6,39.7,30.00,North,360,9.0,-999.0,36,0.00,,,0.00,911,Wunderground v.1.15,2013-05-17 17:42:00,
2013-05-17 13:47:00,67.9,39.2,30.00,NNW,335,13.0,-999.0,35,0.00,,,0.00,911,Wunderground v.1.15,2013-05-17 17:47:00,
2013-05-17 13:52:00,67.8,38.4,30.00,North,5,9.0,-999.0,34,0.00,,,0.00,905,Wunderground v.1.15,2013-05-17 17:52:00,
2013-05-17 13:57:00,67.9,39.9,30.00,NNW,328,10.0,-999.0,36,0.00,,,0.00,905,Wunderground v.1.15,2013-05-17 17:57:00,
2013-05-17 14:02:00,68.5,39.8,30.01,NE,34,7.0,-999.0,35,0.00,,,0.00,898,Wunderground v.1.15,2013-05-17 18:02:00,
2013-05-17 14:07:00,68.4,38.9,30.00,NNW,327,0.0,-999.0,34,0.00,,,0.00,893,Wunderground v.1.15,2013-05-17 18:07:00,
2013-05-17 14:12:00,68.6,40.6,30.00,NNW,345,17.0,-999.0,36,0.00,,,0.00,888,Wunderground v.1.15,2013-05-17 18:12:00,
2013-05-17 14:17:00,68.8,40.0,30.00,North,355,12.0,-999.0,35,0.00,,,0.00,884,Wunderground v.1.15,2013-05-17 18:17:00,
2013-05-17 14:22:00,69.0,40.2,30.00,NE,35,6.0,-999.0,35,0.00,,,0.00,881,Wunderground v.1.15,2013-05-17 18:22:00,
2013-05-17 14:28:00,68.9,39.4,30.00,NNE,28,9.0,-999.0,34,0.00,,,0.00,877,Wunderground v.1.15,2013-05-17 18:28:00,
2013-05-17 14:33:00,68.9,40.8,30.00,NNE,13,4.0,-999.0,36,0.00,,,0.00,884,Wunderground v.1.15,2013-05-17 18:33:00,
2013-05-17 14:38:00,69.5,41.4,30.00,North,351,15.0,-999.0,36,0.00,,,0.00,773,Wunderground v.1.15,2013-05-17 18:38:00,
2013-05-17 14:43:00,69.8,40.9,30.00,NNE,30,7.0,-999.0,35,0.00,,,0.00,875,Wunderground v.1.15,2013-05-17 18:43:00,
2013-05-17 14:48:00,69.7,41.5,30.00,North,355,5.0,-999.0,36,0.00,,,0.00,870,Wunderground v.1.15,2013-05-17 18:48:00,
2013-05-17 14:53:00,69.9,41.7,30.00,NNE,33,8.0,-999.0,36,0.00,,,0.00,795,Wunderground v.1.15,2013-05-17 18:53:00,
2013-05-17 14:58:00,69.9,41.7,30.01,NNW,338,11.0,-999.0,36,0.00,,,0.00,810,Wunderground v.1.15,2013-05-17 18:58:00,
2013-05-17 15:03:00,70.1,39.6,30.00,North,5,17.0,-999.0,33,0.00,,,0.00,877,Wunderground v.1.15,2013-05-17 19:03:00,
2013-05-17 15:08:00,69.9,41.7,30.01,NNE,16,1.0,-999.0,36,0.00,,,0.00,735,Wunderground v.1.15,2013-05-17 19:08:00,
2013-05-17 15:13:00,70.7,41.7,30.01,NNE,30,1.0,-999.0,35,0.00,,,0.00,817,Wunderground v.1.15,2013-05-17 19:13:00,
2013-05-17 15:18:00,71.0,41.2,30.01,North,360,15.0,-999.0,34,0.00,,,0.00,715,Wunderground v.1.15,2013-05-17 19:18:00,
2013-05-17 15:23:00,70.6,40.9,30.01,NNW,335,5.0,-999.0,34,0.00,,,0.00,749,Wunderground v.1.15,2013-05-17 19:23:00,
2013-05-17 15:28:00,70.4,40.7,30.00,NW,323,12.0,-999.0,34,0.00,,,0.00,708,Wunderground v.1.15,2013-05-17 19:28:00,
2013-05-17 15:33:00,70.4,41.4,30.01,NNW,340,7.0,-999.0,35,0.00,,,0.00,772,Wunderground v.1.15,2013-05-17 19:33:00,
2013-05-17 15:38:00,70.0,40.3,30.00,NNE,18,14.0,-999.0,34,0.00,,,0.00,599,Wunderground v.1.15,2013-05-17 19:38:00,
2013-05-17 15:43:00,69.6,41.5,30.00,NW,325,10.0,-999.0,36,0.00,,,0.00,694,Wunderground v.1.15,2013-05-17 19:43:00,
2013-05-17 15:48:00,69.6,41.5,30.01,North,5,16.0,-999.0,36,0.00,,,0.00,712,Wunderground v.1.15,2013-05-17 19:48:00,
2013-05-17 15:53:00,69.4,40.5,30.01,NNE,26,14.0,-999.0,35,0.00,,,0.00,712,Wunderground v.1.15,2013-05-17 19:53:00,
2013-05-17 15:58:00,69.3,40.5,30.01,NNE,15,6.0,-999.0,35,0.00,,,0.00,712,Wunderground v.1.15,2013-05-17 19:58:00,
2013-05-17 16:03:00,69.0,40.9,30.01,NNW,335,12.0,-999.0,36,0.00,,,0.00,686,Wunderground v.1.15,2013-05-17 20:03:00,
2013-05-17 16:08:00,69.3,40.5,30.01,WNW,299,8.0,-999.0,35,0.00,,,0.00,687,Wunderground v.1.15,2013-05-17 20:08:00,
2013-05-17 16:13:00,69.8,40.9,30.01,NNW,344,11.0,-999.0,35,0.00,,,0.00,550,Wunderground v.1.15,2013-05-17 20:13:00,
2013-05-17 16:18:00,69.3,41.2,30.01,NW,313,12.0,-999.0,36,0.00,,,0.00,469,Wunderground v.1.15,2013-05-17 20:18:00,
2013-05-17 16:23:00,69.0,40.9,30.01,NE,44,11.0,-999.0,36,0.00,,,0.00,362,Wunderground v.1.15,2013-05-17 20:23:00,
2013-05-17 16:28:00,68.7,41.4,30.02,NNW,327,13.0,-999.0,37,0.00,,,0.00,383,Wunderground v.1.15,2013-05-17 20:28:00,
2013-05-17 16:33:00,68.3,41.0,30.02,NE,50,2.0,-999.0,37,0.00,,,0.00,329,Wunderground v.1.15,2013-05-17 20:33:00,
2013-05-17 16:38:00,68.3,41.0,30.02,NW,321,4.0,-999.0,37,0.00,,,0.00,552,Wunderground v.1.15,2013-05-17 20:38:00,
2013-05-17 16:43:00,68.7,41.4,30.02,NNW,329,6.0,-999.0,37,0.00,,,0.00,527,Wunderground v.1.15,2013-05-17 20:43:00,
2013-05-17 16:48:00,69.0,41.6,30.02,North,360,7.0,-999.0,37,0.00,,,0.00,422,Wunderground v.1.15,2013-05-17 20:48:00,
2013-05-17 16:53:00,68.9,41.5,30.02,WNW,293,5.0,-999.0,37,0.00,,,0.00,475,Wunderground v.1.15,2013-05-17 20:53:00,
2013-05-17 16:59:00,69.0,41.6,30.02,North,5,11.0,-999.0,37,0.00,,,0.00,424,Wunderground v.1.15,2013-05-17 20:59:00,
2013-05-17 17:04:00,68.9,40.8,30.02,NNE,23,7.0,-999.0,36,0.00,,,0.00,408,Wunderground v.1.15,2013-05-17 21:04:00,
2013-05-17 17:09:00,68.6,40.6,30.02,NNW,341,6.0,-999.0,36,0.00,,,0.00,392,Wunderground v.1.15,2013-05-17 21:09:00,
2013-05-17 17:14:00,68.6,41.3,30.02,NE,54,11.0,-999.0,37,0.00,,,0.00,441,Wunderground v.1.15,2013-05-17 21:14:00,
2013-05-17 17:19:00,68.5,41.2,30.02,NNE,28,6.0,-999.0,37,0.00,,,0.00,424,Wunderground v.1.15,2013-05-17 21:19:00,
2013-05-17 17:24:00,68.6,40.6,30.02,ENE,73,6.0,-999.0,36,0.00,,,0.00,253,Wunderground v.1.15,2013-05-17 21:24:00,
2013-05-17 17:29:00,68.4,41.1,30.02,NNE,22,5.0,-999.0,37,0.00,,,0.00,287,Wunderground v.1.15,2013-05-17 21:29:00,
2013-05-17 17:34:00,68.4,41.1,30.02,NNE,13,1.0,-999.0,37,0.00,,,0.00,237,Wunderground v.1.15,2013-05-17 21:34:00,
2013-05-17 17:39:00,68.4,41.1,30.03,North,355,5.0,-999.0,37,0.00,,,0.00,425,Wunderground v.1.15,2013-05-17 21:39:00,
2013-05-17 17:44:00,68.4,41.1,30.03,NNE,18,0.0,-999.0,37,0.00,,,0.00,388,Wunderground v.1.15,2013-05-17 21:44:00,
2013-05-17 17:49:00,68.5,40.5,30.03,NW,321,5.0,-999.0,36,0.00,,,0.00,362,Wunderground v.1.15,2013-05-17 21:49:00,
2013-05-17 17:54:00,68.6,41.3,30.03,NNW,332,1.0,-999.0,37,0.00,,,0.00,360,Wunderground v.1.15,2013-05-17 21:54:00,
2013-05-17 17:59:00,68.7,41.4,30.03,NNW,327,8.0,-999.0,37,0.00,,,0.00,272,Wunderground v.1.15,2013-05-17 21:59:00,
2013-05-17 18:04:00,68.7,41.4,30.03,North,360,1.0,-999.0,37,0.00,,,0.00,297,Wunderground v.1.15,2013-05-17 22:04:00,
2013-05-17 18:09:00,68.8,41.5,30.03,NNE,15,0.0,-999.0,37,0.00,,,0.00,294,Wunderground v.1.15,2013-05-17 22:09:00,
2013-05-17 18:14:00,68.8,41.5,30.04,NNE,13,1.0,-999.0,37,0.00,,,0.00,211,Wunderground v.1.15,2013-05-17 22:14:00,
2013-05-17 18:19:00,68.9,40.8,30.04,North,349,5.0,-999.0,36,0.00,,,0.00,269,Wunderground v.1.15,2013-05-17 22:19:00,
2013-05-17 18:24:00,69.0,40.9,30.04,North,349,0.0,-999.0,36,0.00,,,0.00,274,Wunderground v.1.15,2013-05-17 22:24:00,
2013-05-17 18:29:00,69.1,41.0,30.04,North,349,0.0,-999.0,36,0.00,,,0.00,155,Wunderground v.1.15,2013-05-17 22:29:00,
2013-05-17 18:34:00,69.1,41.0,30.04,North,349,1.0,-999.0,36,0.00,,,0.00,141,Wunderground v.1.15,2013-05-17 22:34:00,
2013-05-17 18:39:00,69.0,42.3,30.04,North,349,2.0,-999.0,38,0.00,,,0.00,120,Wunderground v.1.15,2013-05-17 22:39:00,
2013-05-17 18:44:00,68.8,42.1,30.04,North,349,0.0,-999.0,38,0.00,,,0.00,142,Wunderground v.1.15,2013-05-17 22:44:00,
2013-05-17 18:49:00,68.6,43.9,30.05,North,349,1.0,-999.0,41,0.00,,,0.00,72,Wunderground v.1.15,2013-05-17 22:49:00,
2013-05-17 18:54:00,68.4,43.8,30.05,North,349,0.0,-999.0,41,0.00,,,0.00,83,Wunderground v.1.15,2013-05-17 22:54:00,
2013-05-17 18:59:00,68.2,46.0,30.05,North,349,0.0,-999.0,45,0.00,,,0.00,109,Wunderground v.1.15,2013-05-17 22:59:00,
2013-05-17 19:04:00,67.9,46.3,30.05,North,349,0.0,-999.0,46,0.00,,,0.00,79,Wunderground v.1.15,2013-05-17 23:04:00,
2013-05-17 19:09:00,67.5,44.8,30.05,North,349,0.0,-999.0,44,0.00,,,0.00,42,Wunderground v.1.15,2013-05-17 23:09:00,
2013-05-17 19:14:00,67.0,44.9,30.06,North,349,0.0,-999.0,45,0.00,,,0.00,40,Wunderground v.1.15,2013-05-17 23:14:00,
2013-05-17 19:19:00,66.5,44.5,30.06,North,349,0.0,-999.0,45,0.00,,,0.00,40,Wunderground v.1.15,2013-05-17 23:19:00,
2013-05-17 19:24:00,65.9,43.9,30.06,North,349,0.0,-999.0,45,0.00,,,0.00,37,Wunderground v.1.15,2013-05-17 23:24:00,
2013-05-17 19:29:00,65.4,44.6,30.06,North,349,0.0,-999.0,47,0.00,,,0.00,35,Wunderground v.1.15,2013-05-17 23:29:00,
2013-05-17 19:34:00,64.6,45.5,30.06,North,349,0.0,-999.0,50,0.00,,,0.00,33,Wunderground v.1.15,2013-05-17 23:34:00,
2013-05-17 19:39:00,64.0,45.5,30.07,North,349,0.0,-999.0,51,0.00,,,0.00,32,Wunderground v.1.15,2013-05-17 23:39:00,
2013-05-17 19:44:00,63.4,45.5,30.07,North,349,0.0,-999.0,52,0.00,,,0.00,26,Wunderground v.1.15,2013-05-17 23:44:00,
2013-05-17 19:49:00,62.9,46.0,30.07,North,349,0.0,-999.0,54,0.00,,,0.00,21,Wunderground v.1.15,2013-05-17 23:49:00,
2013-05-17 19:54:00,62.4,45.0,30.08,North,349,0.0,-999.0,53,0.00,,,0.00,16,Wunderground v.1.15,2013-05-17 23:54:00,
2013-05-17 19:59:00,61.9,45.5,30.08,North,349,0.0,-999.0,55,0.00,,,0.00,12,Wunderground v.1.15,2013-05-17 23:59:00,
2013-05-17 20:04:00,61.4,45.6,30.08,North,349,0.0,-999.0,56,0.00,,,0.00,7,Wunderground v.1.15,2013-05-18 00:04:00,
2013-05-17 20:09:00,60.7,45.8,30.08,North,349,0.0,-999.0,58,0.00,,,0.00,0,Wunderground v.1.15,2013-05-18 00:09:00,
2013-05-17 20:14:00,60.1,45.7,30.09,North,349,0.0,-999.0,59,0.00,,,0.00,0,Wunderground v.1.15,2013-05-18 00:14:00,
2013-05-17 20:19:00,59.7,45.8,30.09,North,349,0.0,-999.0,60,0.00,,,0.00,0,Wunderground v.1.15,2013-05-18 00:19:00,
2013-05-17 20:24:00,59.1,45.7,30.09,North,349,0.0,-999.0,61,0.00,,,0.00,0,Wunderground v.1.15,2013-05-18 00:24:00,
2013-05-17 20:29:00,58.6,46.0,30.09,North,349,0.0,-999.0,63,0.00,,,0.00,0,Wunderground v.1.15,2013-05-18 00:29:00,
2013-05-17 20:34:00,57.9,46.2,30.09,North,349,0.0,-999.0,65,0.00,,,0.00,0,Wunderground v.1.15,2013-05-18 00:34:00,
2013-05-17 20:39:00,57.3,46.0,30.09,North,349,0.0,-999.0,66,0.00,,,0.00,0,Wunderground v.1.15,2013-05-18 00:39:00,
2013-05-17 20:44:00,56.8,46.0,30.10,North,349,0.0,-999.0,67,0.00,,,0.00,0,Wunderground v.1.15,2013-05-18 00:44:00,
2013-05-17 20:49:00,56.3,45.9,30.10,North,349,0.0,-999.0,68,0.00,,,0.00,0,Wunderground v.1.15,2013-05-18 00:49:00,
2013-05-17 20:54:00,56.0,45.2,30.10,North,349,0.0,-999.0,67,0.00,,,0.00,0,Wunderground v.1.15,2013-05-18 00:54:00,
2013-05-17 20:59:00,55.7,45.3,30.11,North,349,0.0,-999.0,68,0.00,,,0.00,0,Wunderground v.1.15,2013-05-18 00:59:00,
2013-05-17 21:04:00,55.5,45.1,30.11,North,349,0.0,-999.0,68,0.00,,,0.00,0,Wunderground v.1.15,2013-05-18 01:04:00,
2013-05-17 21:09:00,55.2,45.2,30.11,North,349,0.0,-999.0,69,0.00,,,0.00,0,Wunderground v.1.15,2013-05-18 01:09:00,
2013-05-17 21:14:00,54.9,44.5,30.12,North,349,0.0,-999.0,68,0.00,,,0.00,0,Wunderground v.1.15,2013-05-18 01:14:00,
2013-05-17 21:19:00,54.5,44.5,30.12,North,349,0.0,-999.0,69,0.00,,,0.00,0,Wunderground v.1.15,2013-05-18 01:19:00,
2013-05-17 21:24:00,54.2,44.6,30.12,North,349,0.0,-999.0,70,0.00,,,0.00,0,Wunderground v.1.15,2013-05-18 01:24:00,
2013-05-17 21:29:00,53.9,44.7,30.12,North,349,0.0,-999.0,71,0.00,,,0.00,0,Wunderground v.1.15,2013-05-18 01:29:00,
2013-05-17 21:34:00,53.5,44.7,30.13,North,349,0.0,-999.0,72,0.00,,,0.00,0,Wunderground v.1.15,2013-05-18 01:34:00,
2013-05-17 21:39:00,53.0,44.6,30.13,North,349,0.0,-999.0,73,0.00,,,0.00,0,Wunderground v.1.15,2013-05-18 01:39:00,
2013-05-17 21:44:00,52.6,44.5,30.13,North,349,0.0,-999.0,74,0.00,,,0.00,0,Wunderground v.1.15,2013-05-18 01:44:00,
2013-05-17 21:49:00,52.3,44.6,30.13,North,349,0.0,-999.0,75,0.00,,,0.00,0,Wunderground v.1.15,2013-05-18 01:49:00,
2013-05-17 21:54:00,51.9,44.6,30.14,North,349,0.0,-999.0,76,0.00,,,0.00,0,Wunderground v.1.15,2013-05-18 01:54:00,
2013-05-17 21:59:00,51.7,44.7,30.14,North,349,0.0,-999.0,77,0.00,,,0.00,0,Wunderground v.1.15,2013-05-18 01:59:00,
2013-05-17 22:04:00,51.5,44.5,30.14,North,349,0.0,-999.0,77,0.00,,,0.00,0,Wunderground v.1.15,2013-05-18 02:04:00,
2013-05-17 22:09:00,51.3,44.7,30.14,North,349,0.0,-999.0,78,0.00,,,0.00,0,Wunderground v.1.15,2013-05-18 02:09:00,
2013-05-17 22:14:00,51.0,44.4,30.15,North,349,0.0,-999.0,78,0.00,,,0.00,0,Wunderground v.1.15,2013-05-18 02:14:00,
2013-05-17 22:19:00,50.7,44.4,30.15,North,349,0.0,-999.0,79,0.00,,,0.00,0,Wunderground v.1.15,2013-05-18 02:19:00,
2013-05-17 22:24:00,50.5,44.6,30.15,North,349,1.0,-999.0,80,0.00,,,0.00,0,Wunderground v.1.15,2013-05-18 02:24:00,
2013-05-17 22:29:00,50.3,44.4,30.15,North,349,0.0,-999.0,80,0.00,,,0.00,0,Wunderground v.1.15,2013-05-18 02:29:00,
2013-05-17 22:34:00,50.1,44.5,30.15,North,349,2.0,-999.0,81,0.00,,,0.00,0,Wunderground v.1.15,2013-05-18 02:34:00,
2013-05-17 22:39:00,49.9,44.3,30.15,North,349,0.0,-999.0,81,0.00,,,0.00,0,Wunderground v.1.15,2013-05-18 02:39:00,
2013-05-17 22:44:00,49.7,44.4,30.15,North,349,2.0,-999.0,82,0.00,,,0.00,0,Wunderground v.1.15,2013-05-18 02:44:00,
2013-05-17 22:49:00,49.7,44.4,30.15,North,349,0.0,-999.0,82,0.00,,,0.00,0,Wunderground v.1.15,2013-05-18 02:49:00,
2013-05-17 22:54:00,50.0,44.4,30.15,North,349,7.0,-999.0,81,0.00,,,0.00,0,Wunderground v.1.15,2013-05-18 02:54:00,
2013-05-17 22:59:00,50.6,44.3,30.15,North,349,8.0,-999.0,79,0.00,,,0.00,0,Wunderground v.1.15,2013-05-18 02:59:00,
2013-05-17 23:04:00,51.1,44.5,30.15,North,349,6.0,-999.0,78,0.00,,,0.00,0,Wunderground v.1.15,2013-05-18 03:04:00,
2013-05-17 23:09:00,51.3,44.3,30.15,North,349,2.0,-999.0,77,0.00,,,0.00,0,Wunderground v.1.15,2013-05-18 03:09:00,
2013-05-17 23:14:00,51.3,44.3,30.15,North,349,1.0,-999.0,77,0.00,,,0.00,0,Wunderground v.1.15,2013-05-18 03:14:00,
2013-05-17 23:19:00,51.1,44.1,30.15,North,349,0.0,-999.0,77,0.00,,,0.00,0,Wunderground v.1.15,2013-05-18 03:19:00,
2013-05-17 23:24:00,50.8,44.2,30.15,North,349,6.0,-999.0,78,0.00,,,0.00,0,Wunderground v.1.15,2013-05-18 03:24:00,
2013-05-17 23:29:00,50.6,44.0,30.16,North,349,4.0,-999.0,78,0.00,,,0.00,0,Wunderground v.1.15,2013-05-18 03:29:00,
2013-05-17 23:34:00,50.5,43.9,30.16,North,349,0.0,-999.0,78,0.00,,,0.00,0,Wunderground v.1.15,2013-05-18 03:34:00,
2013-05-17 23:39:00,50.5,43.9,30.16,North,349,1.0,-999.0,78,0.00,,,0.00,0,Wunderground v.1.15,2013-05-18 03:39:00,
2013-05-17 23:44:00,50.6,43.7,30.16,North,349,4.0,-999.0,77,0.00,,,0.00,0,Wunderground v.1.15,2013-05-18 03:44:00,
2013-05-17 23:49:00,50.7,43.8,30.16,North,349,0.0,-999.0,77,0.00,,,0.00,0,Wunderground v.1.15,2013-05-18 03:49:00,
2013-05-17 23:54:00,50.8,43.5,30.16,North,349,2.0,-999.0,76,0.00,,,0.00,0,Wunderground v.1.15,2013-05-18 03:54:00,
2013-05-17 23:59:00,50.9,43.6,30.16,North,349,0.0,-999.0,76,0.00,,,0.00,0,Wunderground v.1.15,2013-05-18 03:59:00,